Tracking 19854 objects as of 21-Sep-2019
HD Live streaming from Space Station
objects crossing your sky now

TIMATION 1

Track TIMATION 1 now!
10-day predictions
TIMATION 1 is classified as:


NORAD ID: 2847
Int'l Code: 1967-053E
Perigee: 891.1 km
Apogee: 898.8 km
Inclination: 70.0 °
Period: 102.7 minutes
Semi major axis: 7265 km
RCS: 0.1805 m2 (medium)
Launch date: May 31, 1967
Source: United States (US)
Launch site: AIR FORCE WESTERN TEST RANGE (AFWTR)
aabbcc
Your satellite tracking list
Your tracking list is empty




NASA's NSSDC Master Catalog

Two Line Element Set (TLE):
1  2847U 67053E   19263.90119640 +.00000007 +00000-0 +39967-4 0  9998
2  2847 069.9647 132.1803 0005309 021.8256 338.3077 14.01741879668769
Source of the keplerian elements: AFSPC